sat.trackr.live / text

‹ back to catalog

STARLINK-5949

NORAD 56019 · 2023-042AK

PAYLOAD ACTIVE UNKNOWN

§ Identity

Operator
Country
US
Launch date
2023-03-24
Launch site
AFETR
Launch vehicle
Mass (kg)
RCS (m²)

Purposes: comms

External: N2YO · Heavens-Above · Gunter

§ Orbital elements

Epoch: 2026-09-20T01:45:49.283712Z

Period
94.27 min
Inclination
43.0053°
Eccentricity
0.0001609
Mean motion
15.27575302 rev/d
Perigee alt
482.0 km
Apogee alt
484.2 km
Semi-major
6,861.2 km
B*
5.4013e-5
RAAN
27.4801°
Arg perigee
283.1602°
Mean anomaly
76.9070°
Rev number
19,276

§ Raw data

STARLINK-59491 56019U 23042AK  26263.07348708  .00001224  00000+0  54013-4 0  99932 56019  43.0053  27.4801 0001609 283.1602  76.9070 15.27575302192769

JSON: /api/v1/satellites/56019 · /tle

For live sub-satellite position, see the globe view (requires WebGL).

§ Visibility from observer

Set your observer location to see the next 7 days of passes ≥ 10°. The values pass through the URL so the page stays shareable.

No JS? Fill the form by hand. The geolocation button needs JavaScript.